Time,TemperatureF,DewpointF,PressureIn,WindDirection,WindDirectionDegrees,WindSpeedMPH,WindSpeedGustMPH,Humidity,HourlyPrecipIn,Conditions,Clouds,dailyrainin,SoftwareType,DateUTC
2013-03-17 00:00:00,37.8,26.8,29.91,NE,45,0.0,0.0,64,0.00,,,0.00,WUHU21623XXSP,2013-03-17 04:00:00,
2013-03-17 00:05:00,37.6,26.6,29.91,NE,45,0.0,0.0,64,0.00,,,0.00,WUHU21623XXSP,2013-03-17 04:05:00,
2013-03-17 00:10:00,37.5,26.5,29.91,NE,45,2.7,2.7,64,0.00,,,0.00,WUHU21623XXSP,2013-03-17 04:10:00,
2013-03-17 00:15:00,37.5,26.5,29.91,NE,45,0.0,2.7,64,0.00,,,0.00,WUHU21623XXSP,2013-03-17 04:15:00,
2013-03-17 00:20:00,37.3,26.3,29.91,NE,45,0.0,0.0,64,0.00,,,0.00,WUHU21623XXSP,2013-03-17 04:20:00,
2013-03-17 00:25:00,37.3,26.7,29.91,NNW,337,2.9,2.9,65,0.00,,,0.00,WUHU21623XXSP,2013-03-17 04:25:00,
2013-03-17 00:30:00,36.9,26.3,29.91,NNW,337,0.0,2.9,65,0.00,,,0.00,WUHU21623XXSP,2013-03-17 04:30:00,
2013-03-17 00:35:00,36.9,26.3,29.91,NNW,337,0.0,0.0,65,0.00,,,0.00,WUHU21623XXSP,2013-03-17 04:35:00,
2013-03-17 00:40:00,36.9,26.3,29.90,NNW,337,0.0,0.0,65,0.00,,,0.00,WUHU21623XXSP,2013-03-17 04:40:00,
2013-03-17 00:45:00,36.9,26.3,29.90,NNE,22,2.0,6.7,65,0.00,,,0.00,WUHU21623XXSP,2013-03-17 04:45:00,
2013-03-17 00:50:00,36.9,26.3,29.90,North,0,0.0,6.7,65,0.00,,,0.00,WUHU21623XXSP,2013-03-17 04:50:00,
2013-03-17 00:55:00,36.9,26.3,29.90,North,0,0.0,0.0,65,0.00,,,0.00,WUHU21623XXSP,2013-03-17 04:55:00,
2013-03-17 01:00:00,36.7,26.1,29.90,NE,45,0.0,0.0,65,0.00,,,0.00,WUHU21623XXSP,2013-03-17 05:00:00,
2013-03-17 01:05:00,36.7,26.1,29.91,SE,135,0.0,0.0,65,0.00,,,0.00,WUHU21623XXSP,2013-03-17 05:05:00,
2013-03-17 01:10:00,36.7,26.5,29.91,North,9,2.3,3.1,66,0.00,,,0.00,WUHU21623XXSP,2013-03-17 05:10:00,
2013-03-17 01:15:00,36.7,26.5,29.91,NE,45,0.0,3.1,66,0.00,,,0.00,WUHU21623XXSP,2013-03-17 05:15:00,
2013-03-17 01:20:00,36.6,26.4,29.91,ENE,67,2.9,4.5,66,0.00,,,0.00,WUHU21623XXSP,2013-03-17 05:20:00,
2013-03-17 01:25:00,36.4,26.2,29.92,East,90,0.0,4.5,66,0.00,,,0.00,WUHU21623XXSP,2013-03-17 05:25:00,
2013-03-17 01:30:00,36.4,26.2,29.92,East,90,0.0,2.0,66,0.00,,,0.00,WUHU21623XXSP,2013-03-17 05:30:00,
2013-03-17 01:35:00,36.4,26.2,29.92,NE,45,0.0,5.8,66,0.00,,,0.00,WUHU21623XXSP,2013-03-17 05:35:00,
2013-03-17 01:40:00,36.4,26.2,29.92,NE,34,3.0,6.0,66,0.00,,,0.00,WUHU21623XXSP,2013-03-17 05:40:00,
2013-03-17 01:45:00,36.2,26.0,29.92,NE,45,0.0,6.0,66,0.00,,,0.00,WUHU21623XXSP,2013-03-17 05:45:00,
2013-03-17 01:50:00,36.2,26.0,29.93,East,90,0.0,4.9,66,0.00,,,0.00,WUHU21623XXSP,2013-03-17 05:50:00,
2013-03-17 01:55:00,36.0,25.8,29.92,NE,45,3.6,3.8,66,0.00,,,0.00,WUHU21623XXSP,2013-03-17 05:55:00,
2013-03-17 02:00:00,36.0,25.8,29.93,NE,45,0.0,3.8,66,0.00,,,0.00,WUHU21623XXSP,2013-03-17 06:00:00,
2013-03-17 02:05:00,36.0,25.8,29.93,NE,45,4.0,4.0,66,0.00,,,0.00,WUHU21623XXSP,2013-03-17 06:05:00,
2013-03-17 02:10:00,35.8,25.6,29.93,NE,45,0.0,7.8,66,0.00,,,0.00,WUHU21623XXSP,2013-03-17 06:10:00,
2013-03-17 02:15:00,35.8,25.6,29.93,NNE,22,0.0,7.8,66,0.00,,,0.00,WUHU21623XXSP,2013-03-17 06:15:00,
2013-03-17 02:20:00,35.8,25.6,29.93,East,90,0.0,0.0,66,0.00,,,0.00,WUHU21623XXSP,2013-03-17 06:20:00,
2013-03-17 02:25:00,35.7,25.5,29.93,East,90,0.0,0.0,66,0.00,,,0.00,WUHU21623XXSP,2013-03-17 06:25:00,
2013-03-17 02:30:00,35.5,25.3,29.93,ENE,67,0.0,0.0,66,0.00,,,0.00,WUHU21623XXSP,2013-03-17 06:30:00,
2013-03-17 02:35:00,35.5,25.3,29.93,NE,45,0.0,0.0,66,0.00,,,0.00,WUHU21623XXSP,2013-03-17 06:35:00,
2013-03-17 02:40:00,35.3,25.1,29.94,ENE,67,0.0,0.0,66,0.00,,,0.00,WUHU21623XXSP,2013-03-17 06:40:00,
2013-03-17 02:45:00,35.1,25.3,29.94,East,90,0.0,0.0,67,0.00,,,0.00,WUHU21623XXSP,2013-03-17 06:45:00,
2013-03-17 02:50:00,35.1,25.3,29.94,NE,45,0.0,0.0,67,0.00,,,0.00,WUHU21623XXSP,2013-03-17 06:50:00,
2013-03-17 02:55:00,35.1,25.3,29.94,NE,45,0.0,0.0,67,0.00,,,0.00,WUHU21623XXSP,2013-03-17 06:55:00,
2013-03-17 03:00:00,35.1,25.3,29.94,NNE,22,0.0,0.0,67,0.00,,,0.00,WUHU21623XXSP,2013-03-17 07:00:00,
2013-03-17 03:05:00,34.9,25.1,29.94,ENE,67,0.0,0.0,67,0.00,,,0.00,WUHU21623XXSP,2013-03-17 07:05:00,
2013-03-17 03:10:00,34.9,25.1,29.94,ENE,67,0.0,0.0,67,0.00,,,0.00,WUHU21623XXSP,2013-03-17 07:10:00,
2013-03-17 03:15:00,34.8,25.0,29.94,NE,45,0.0,0.0,67,0.00,,,0.00,WUHU21623XXSP,2013-03-17 07:15:00,
2013-03-17 03:20:00,34.6,24.8,29.94,North,0,0.0,0.0,67,0.00,,,0.00,WUHU21623XXSP,2013-03-17 07:20:00,
2013-03-17 03:25:00,34.6,24.8,29.95,North,0,0.0,0.0,67,0.00,,,0.00,WUHU21623XXSP,2013-03-17 07:25:00,
2013-03-17 03:30:00,34.6,24.8,29.95,North,0,0.0,0.0,67,0.00,,,0.00,WUHU21623XXSP,2013-03-17 07:30:00,
2013-03-17 03:35:00,34.4,25.0,29.95,ENE,67,0.0,0.0,68,0.00,,,0.00,WUHU21623XXSP,2013-03-17 07:35:00,
2013-03-17 03:40:00,34.4,25.0,29.96,ESE,112,4.0,4.0,68,0.00,,,0.00,WUHU21623XXSP,2013-03-17 07:40:00,
2013-03-17 03:45:00,34.2,24.8,29.96,NE,45,0.0,4.0,68,0.00,,,0.00,WUHU21623XXSP,2013-03-17 07:45:00,
2013-03-17 03:50:00,34.2,24.8,29.96,ENE,67,0.0,3.4,68,0.00,,,0.00,WUHU21623XXSP,2013-03-17 07:50:00,
2013-03-17 03:55:00,34.2,24.8,29.96,ESE,112,0.0,0.7,68,0.00,,,0.00,WUHU21623XXSP,2013-03-17 07:55:00,
2013-03-17 04:00:00,34.2,24.8,29.96,SE,135,0.0,6.3,68,0.00,,,0.00,WUHU21623XXSP,2013-03-17 08:00:00,
2013-03-17 04:05:00,34.0,24.6,29.96,NNW,337,0.0,6.3,68,0.00,,,0.00,WUHU21623XXSP,2013-03-17 08:05:00,
2013-03-17 04:10:00,34.0,24.6,29.97,North,0,0.0,0.0,68,0.00,,,0.00,WUHU21623XXSP,2013-03-17 08:10:00,
2013-03-17 04:15:00,34.0,24.6,29.97,North,0,0.0,0.0,68,0.00,,,0.00,WUHU21623XXSP,2013-03-17 08:15:00,
2013-03-17 04:20:00,34.0,24.6,29.96,NNE,22,0.0,0.0,68,0.00,,,0.00,WUHU21623XXSP,2013-03-17 08:20:00,
2013-03-17 04:25:00,34.0,24.6,29.96,NNW,337,0.0,4.9,68,0.00,,,0.00,WUHU21623XXSP,2013-03-17 08:25:00,
2013-03-17 04:30:00,33.9,24.5,29.97,NNW,337,0.0,4.9,68,0.00,,,0.00,WUHU21623XXSP,2013-03-17 08:30:00,
2013-03-17 04:35:00,33.9,24.9,29.97,NE,39,2.5,3.8,69,0.00,,,0.00,WUHU21623XXSP,2013-03-17 08:35:00,
2013-03-17 04:40:00,33.9,24.9,29.97,SSW,202,0.0,3.8,69,0.00,,,0.00,WUHU21623XXSP,2013-03-17 08:40:00,
2013-03-17 04:45:00,33.9,24.9,29.97,ENE,67,5.8,10.1,69,0.00,,,0.00,WUHU21623XXSP,2013-03-17 08:45:00,
2013-03-17 04:50:00,33.9,24.9,29.98,NE,45,5.8,10.1,69,0.00,,,0.00,WUHU21623XXSP,2013-03-17 08:50:00,
2013-03-17 04:55:00,33.9,24.9,29.98,ESE,112,1.8,8.5,69,0.00,,,0.00,WUHU21623XXSP,2013-03-17 08:55:00,
2013-03-17 05:00:00,33.9,24.9,29.98,North,0,6.7,6.7,69,0.00,,,0.00,WUHU21623XXSP,2013-03-17 09:00:00,
2013-03-17 05:05:00,33.9,24.9,29.99,ENE,67,2.0,6.7,69,0.00,,,0.00,WUHU21623XXSP,2013-03-17 09:05:00,
2013-03-17 05:10:00,33.9,24.9,29.98,ENE,77,6.9,10.3,69,0.00,,,0.00,WUHU21623XXSP,2013-03-17 09:10:00,
2013-03-17 05:15:00,33.9,24.9,29.98,ENE,67,3.6,10.3,69,0.00,,,0.00,WUHU21623XXSP,2013-03-17 09:15:00,
2013-03-17 05:20:00,33.7,24.7,29.99,ENE,60,3.3,8.5,69,0.00,,,0.00,WUHU21623XXSP,2013-03-17 09:20:00,
2013-03-17 05:25:00,33.9,24.9,29.99,West,270,0.0,7.4,69,0.00,,,0.00,WUHU21623XXSP,2013-03-17 09:25:00,
2013-03-17 05:30:00,33.7,24.7,30.00,NE,45,2.3,5.1,69,0.00,,,0.00,WUHU21623XXSP,2013-03-17 09:30:00,
2013-03-17 05:35:00,33.7,24.7,30.00,NE,45,5.8,5.8,69,0.00,,,0.00,WUHU21623XXSP,2013-03-17 09:35:00,
2013-03-17 05:40:00,33.7,24.7,30.00,NE,45,2.7,6.0,69,0.00,,,0.00,WUHU21623XXSP,2013-03-17 09:40:00,
2013-03-17 05:45:00,33.7,24.7,30.00,NE,45,0.0,8.9,69,0.00,,,0.00,WUHU21623XXSP,2013-03-17 09:45:00,
2013-03-17 05:50:00,33.7,24.7,30.00,NE,45,0.0,9.6,69,0.00,,,0.00,WUHU21623XXSP,2013-03-17 09:50:00,
2013-03-17 05:55:00,33.7,24.7,30.00,NNE,22,7.2,9.6,69,0.00,,,0.00,WUHU21623XXSP,2013-03-17 09:55:00,
2013-03-17 06:00:00,33.7,24.7,30.00,NE,52,4.4,7.6,69,0.00,,,0.00,WUHU21623XXSP,2013-03-17 10:00:00,
2013-03-17 06:05:00,33.7,24.7,30.00,NE,46,3.2,7.4,69,0.00,,,0.00,WUHU21623XXSP,2013-03-17 10:05:00,
2013-03-17 06:10:00,33.7,24.7,30.01,NE,51,5.3,7.6,69,0.00,,,0.00,WUHU21623XXSP,2013-03-17 10:10:00,
2013-03-17 06:15:00,33.9,24.9,30.01,ENE,78,4.8,10.1,69,0.00,,,0.00,WUHU21623XXSP,2013-03-17 10:15:00,
2013-03-17 06:20:00,33.9,24.9,30.01,ENE,62,5.5,10.1,69,0.00,,,0.00,WUHU21623XXSP,2013-03-17 10:20:00,
2013-03-17 06:25:00,33.9,24.9,30.01,NE,41,3.8,7.6,69,0.00,,,0.00,WUHU21623XXSP,2013-03-17 10:25:00,
2013-03-17 06:30:00,33.9,24.9,30.01,NE,36,4.7,10.3,69,0.00,,,0.00,WUHU21623XXSP,2013-03-17 10:30:00,
2013-03-17 06:35:00,33.9,24.9,30.01,SE,135,1.7,10.3,69,0.00,,,0.00,WUHU21623XXSP,2013-03-17 10:35:00,
2013-03-17 06:40:00,34.0,25.0,30.02,NE,54,3.3,4.5,69,0.00,,,0.00,WUHU21623XXSP,2013-03-17 10:40:00,
2013-03-17 06:45:00,34.0,25.0,30.02,NE,45,7.4,7.4,69,0.00,,,0.00,WUHU21623XXSP,2013-03-17 10:45:00,
2013-03-17 06:50:00,34.0,25.0,30.02,ENE,67,4.5,7.8,69,0.00,,,0.00,WUHU21623XXSP,2013-03-17 10:50:00,
2013-03-17 06:55:00,34.0,25.0,30.03,NNE,22,3.8,10.7,69,0.00,,,0.00,WUHU21623XXSP,2013-03-17 10:55:00,
2013-03-17 07:00:00,34.0,25.0,30.03,North,0,1.1,10.7,69,0.00,,,0.00,WUHU21623XXSP,2013-03-17 11:00:00,
2013-03-17 07:05:00,34.2,25.2,30.03,NNE,22,2.0,3.8,69,0.00,,,0.00,WUHU21623XXSP,2013-03-17 11:05:00,
2013-03-17 07:10:00,34.2,25.2,30.03,NNE,32,1.3,5.1,69,0.00,,,0.00,WUHU21623XXSP,2013-03-17 11:10:00,
2013-03-17 07:15:00,34.2,25.2,30.03,East,90,2.0,5.1,69,0.00,,,0.00,WUHU21623XXSP,2013-03-17 11:15:00,
2013-03-17 07:20:00,34.4,25.3,30.03,NE,52,4.3,7.6,69,0.00,,,0.00,WUHU21623XXSP,2013-03-17 11:20:00,
2013-03-17 07:25:00,34.4,25.3,30.04,ESE,102,5.1,7.6,69,0.00,,,0.00,WUHU21623XXSP,2013-03-17 11:25:00,
2013-03-17 07:30:00,34.6,25.5,30.04,ENE,72,3.3,5.4,69,0.00,,,0.00,WUHU21623XXSP,2013-03-17 11:30:00,
2013-03-17 07:35:00,34.8,25.7,30.04,North,0,3.8,4.0,69,0.00,,,0.00,WUHU21623XXSP,2013-03-17 11:35:00,
2013-03-17 07:40:00,34.9,25.5,30.04,ENE,64,5.1,8.7,68,0.00,,,0.00,WUHU21623XXSP,2013-03-17 11:40:00,
2013-03-17 07:45:00,35.1,25.7,30.05,ENE,67,3.7,8.7,68,0.00,,,0.00,WUHU21623XXSP,2013-03-17 11:45:00,
2013-03-17 07:50:00,35.1,25.7,30.06,ESE,112,0.0,6.7,68,0.00,,,0.00,WUHU21623XXSP,2013-03-17 11:50:00,
2013-03-17 07:55:00,35.3,25.9,30.06,ESE,112,0.0,0.0,68,0.00,,,0.00,WUHU21623XXSP,2013-03-17 11:55:00,
2013-03-17 08:00:00,35.5,26.1,30.06,ESE,112,0.0,0.0,68,0.00,,,0.00,WUHU21623XXSP,2013-03-17 12:00:00,
2013-03-17 08:05:00,35.7,26.2,30.06,ENE,67,0.0,0.0,68,0.00,,,0.00,WUHU21623XXSP,2013-03-17 12:05:00,
2013-03-17 08:10:00,35.8,26.3,30.06,NE,45,2.2,2.2,68,0.00,,,0.00,WUHU21623XXSP,2013-03-17 12:10:00,
2013-03-17 08:15:00,36.0,26.5,30.06,NNE,22,0.0,2.2,68,0.00,,,0.00,WUHU21623XXSP,2013-03-17 12:15:00,
2013-03-17 08:20:00,36.2,26.7,30.06,ENE,67,3.1,3.1,68,0.00,,,0.00,WUHU21623XXSP,2013-03-17 12:20:00,
2013-03-17 08:25:00,36.4,26.9,30.06,NE,47,3.8,6.7,68,0.00,,,0.00,WUHU21623XXSP,2013-03-17 12:25:00,
2013-03-17 08:30:00,36.7,27.2,30.07,NNE,22,1.6,6.7,68,0.00,,,0.00,WUHU21623XXSP,2013-03-17 12:30:00,
2013-03-17 08:35:00,36.9,27.4,30.08,NE,50,2.0,2.5,68,0.00,,,0.00,WUHU21623XXSP,2013-03-17 12:35:00,
2013-03-17 08:40:00,37.1,27.6,30.09,NE,45,0.0,2.5,68,0.00,,,0.00,WUHU21623XXSP,2013-03-17 12:40:00,
2013-03-17 08:45:00,37.3,27.4,30.09,SE,135,2.9,4.0,67,0.00,,,0.00,WUHU21623XXSP,2013-03-17 12:45:00,
2013-03-17 08:50:00,37.5,27.6,30.10,NW,315,2.2,7.4,67,0.00,,,0.00,WUHU21623XXSP,2013-03-17 12:50:00,
2013-03-17 08:55:00,37.6,27.7,30.09,NE,45,0.0,7.4,67,0.00,,,0.00,WUHU21623XXSP,2013-03-17 12:55:00,
2013-03-17 09:00:00,37.8,27.9,30.09,ENE,67,0.0,3.4,67,0.00,,,0.00,WUHU21623XXSP,2013-03-17 13:00:00,
2013-03-17 09:05:00,38.0,28.1,30.10,NNE,22,0.0,3.4,67,0.00,,,0.00,WUHU21623XXSP,2013-03-17 13:05:00,
2013-03-17 09:10:00,38.2,28.3,30.11,ENE,67,0.0,0.0,67,0.00,,,0.00,WUHU21623XXSP,2013-03-17 13:10:00,
2013-03-17 09:15:00,38.5,28.6,30.11,NNE,14,1.9,3.8,67,0.00,,,0.00,WUHU21623XXSP,2013-03-17 13:15:00,
2013-03-17 09:20:00,38.7,28.8,30.10,NNW,337,0.0,5.1,67,0.00,,,0.00,WUHU21623XXSP,2013-03-17 13:20:00,
2013-03-17 09:25:00,38.9,28.6,30.10,NE,45,6.7,6.7,66,0.00,,,0.00,WUHU21623XXSP,2013-03-17 13:25:00,
2013-03-17 09:30:00,39.1,28.8,30.10,NE,45,0.0,6.7,66,0.00,,,0.00,WUHU21623XXSP,2013-03-17 13:30:00,
2013-03-17 09:35:00,39.4,29.1,30.10,NE,45,0.0,4.3,66,0.00,,,0.00,WUHU21623XXSP,2013-03-17 13:35:00,
2013-03-17 09:40:00,39.6,29.3,30.10,East,90,0.0,6.5,66,0.00,,,0.00,WUHU21623XXSP,2013-03-17 13:40:00,
2013-03-17 09:45:00,39.6,29.3,30.10,ENE,61,3.0,6.5,66,0.00,,,0.00,WUHU21623XXSP,2013-03-17 13:45:00,
2013-03-17 09:50:00,40.0,29.6,30.11,NE,45,5.4,6.3,66,0.00,,,0.00,WUHU21623XXSP,2013-03-17 13:50:00,
2013-03-17 09:55:00,40.0,29.6,30.11,NE,45,0.0,8.7,66,0.00,,,0.00,WUHU21623XXSP,2013-03-17 13:55:00,
2013-03-17 10:00:00,40.3,29.5,30.11,NNE,18,3.6,8.7,65,0.00,,,0.00,WUHU21623XXSP,2013-03-17 14:00:00,
2013-03-17 10:05:00,40.3,29.5,30.11,ENE,67,3.1,8.1,65,0.00,,,0.00,WUHU21623XXSP,2013-03-17 14:05:00,
2013-03-17 10:10:00,40.5,29.7,30.11,NE,48,2.8,8.1,65,0.00,,,0.00,WUHU21623XXSP,2013-03-17 14:10:00,
2013-03-17 10:15:00,40.5,29.7,30.11,North,0,4.9,6.9,65,0.00,,,0.00,WUHU21623XXSP,2013-03-17 14:15:00,
2013-03-17 10:20:00,40.5,29.4,30.11,NNW,336,3.3,8.7,64,0.00,,,0.00,WUHU21623XXSP,2013-03-17 14:20:00,
2013-03-17 10:25:00,40.5,29.4,30.12,East,99,1.9,8.7,64,0.00,,,0.00,WUHU21623XXSP,2013-03-17 14:25:00,
2013-03-17 10:30:00,40.5,29.4,30.13,South,180,3.4,8.3,64,0.00,,,0.00,WUHU21623XXSP,2013-03-17 14:30:00,
2013-03-17 10:35:00,40.9,29.7,30.14,NNW,337,0.0,7.4,64,0.00,,,0.00,WUHU21623XXSP,2013-03-17 14:35:00,
2013-03-17 10:40:00,41.1,29.9,30.14,ENE,66,5.3,7.8,64,0.00,,,0.00,WUHU21623XXSP,2013-03-17 14:40:00,
2013-03-17 10:45:00,41.2,29.6,30.13,ENE,67,2.2,8.9,63,0.00,,,0.00,WUHU21623XXSP,2013-03-17 14:45:00,
2013-03-17 10:50:00,41.2,29.6,30.14,NNE,15,4.0,8.9,63,0.00,,,0.00,WUHU21623XXSP,2013-03-17 14:50:00,
2013-03-17 10:55:00,41.2,29.6,30.14,East,90,4.9,6.3,63,0.00,,,0.00,WUHU21623XXSP,2013-03-17 14:55:00,
2013-03-17 11:00:00,41.4,29.8,30.14,ESE,112,0.0,9.4,63,0.00,,,0.00,WUHU21623XXSP,2013-03-17 15:00:00,
2013-03-17 11:05:00,41.4,29.8,30.14,NE,55,6.3,9.4,63,0.00,,,0.00,WUHU21623XXSP,2013-03-17 15:05:00,
2013-03-17 11:10:00,41.4,29.8,30.14,East,88,3.4,9.4,63,0.00,,,0.00,WUHU21623XXSP,2013-03-17 15:10:00,
2013-03-17 11:15:00,41.6,30.0,30.14,ENE,67,0.9,9.4,63,0.00,,,0.00,WUHU21623XXSP,2013-03-17 15:15:00,
2013-03-17 11:20:00,41.6,29.6,30.14,NW,315,0.0,0.9,62,0.00,,,0.00,WUHU21623XXSP,2013-03-17 15:20:00,
2013-03-17 11:25:00,41.6,29.6,30.14,ESE,112,0.0,6.3,62,0.00,,,0.00,WUHU21623XXSP,2013-03-17 15:25:00,
2013-03-17 11:30:00,41.6,29.6,30.14,NE,45,0.0,7.4,62,0.00,,,0.00,WUHU21623XXSP,2013-03-17 15:30:00,
2013-03-17 11:35:00,41.4,29.4,30.14,East,97,3.3,8.5,62,0.00,,,0.00,WUHU21623XXSP,2013-03-17 15:35:00,
2013-03-17 11:40:00,41.4,29.4,30.14,NE,47,3.9,8.5,62,0.00,,,0.00,WUHU21623XXSP,2013-03-17 15:40:00,
2013-03-17 11:45:00,41.4,29.4,30.14,East,90,2.2,7.2,62,0.00,,,0.00,WUHU21623XXSP,2013-03-17 15:45:00,
2013-03-17 11:50:00,41.4,29.4,30.14,NE,45,0.0,2.2,62,0.00,,,0.00,WUHU21623XXSP,2013-03-17 15:50:00,
2013-03-17 11:55:00,41.4,29.0,30.14,NE,45,6.9,8.1,61,0.00,,,0.00,WUHU21623XXSP,2013-03-17 15:55:00,
2013-03-17 12:00:00,41.4,29.0,30.14,NNE,22,3.6,11.0,61,0.00,,,0.00,WUHU21623XXSP,2013-03-17 16:00:00,
2013-03-17 12:05:00,41.4,29.0,30.14,East,95,2.5,11.0,61,0.00,,,0.00,WUHU21623XXSP,2013-03-17 16:05:00,
2013-03-17 12:10:00,41.2,28.8,30.14,ENE,67,0.0,4.0,61,0.00,,,0.00,WUHU21623XXSP,2013-03-17 16:10:00,
2013-03-17 12:15:00,41.4,29.0,30.14,ESE,112,0.0,2.2,61,0.00,,,0.00,WUHU21623XXSP,2013-03-17 16:15:00,
2013-03-17 12:20:00,41.4,29.0,30.14,East,90,0.0,4.5,61,0.00,,,0.00,WUHU21623XXSP,2013-03-17 16:20:00,
2013-03-17 12:25:00,41.4,29.0,30.15,NNE,22,1.3,8.1,61,0.00,,,0.00,WUHU21623XXSP,2013-03-17 16:25:00,
2013-03-17 12:30:00,41.4,29.0,30.16,ENE,67,0.0,8.1,61,0.00,,,0.00,WUHU21623XXSP,2013-03-17 16:30:00,
2013-03-17 12:35:00,41.6,29.2,30.17,NNW,337,7.2,7.2,61,0.00,,,0.00,WUHU21623XXSP,2013-03-17 16:35:00,
2013-03-17 12:40:00,41.4,29.0,30.17,WNW,292,0.0,7.2,61,0.00,,,0.00,WUHU21623XXSP,2013-03-17 16:40:00,
2013-03-17 12:45:00,41.4,28.6,30.17,SSE,157,4.3,4.3,60,0.00,,,0.00,WUHU21623XXSP,2013-03-17 16:45:00,
2013-03-17 12:50:00,41.4,28.6,30.18,NE,45,3.8,4.3,60,0.00,,,0.00,WUHU21623XXSP,2013-03-17 16:50:00,
2013-03-17 12:55:00,41.4,28.6,30.18,SSW,202,0.0,3.8,60,0.00,,,0.00,WUHU21623XXSP,2013-03-17 16:55:00,
2013-03-17 13:00:00,41.4,28.6,30.17,NNW,337,0.0,4.7,60,0.00,,,0.00,WUHU21623XXSP,2013-03-17 17:00:00,
2013-03-17 13:05:00,41.4,28.6,30.16,ENE,67,0.0,4.7,60,0.00,,,0.00,WUHU21623XXSP,2013-03-17 17:05:00,
2013-03-17 13:10:00,41.2,28.4,30.16,NE,45,0.0,4.0,60,0.00,,,0.00,WUHU21623XXSP,2013-03-17 17:10:00,
2013-03-17 13:15:00,41.2,28.4,30.16,NE,45,0.0,0.0,60,0.00,,,0.00,WUHU21623XXSP,2013-03-17 17:15:00,
2013-03-17 13:20:00,41.4,28.6,30.15,ENE,67,0.0,0.0,60,0.00,,,0.00,WUHU21623XXSP,2013-03-17 17:20:00,
2013-03-17 13:25:00,41.4,28.6,30.15,East,92,3.5,4.9,60,0.00,,,0.00,WUHU21623XXSP,2013-03-17 17:25:00,
2013-03-17 13:30:00,41.4,28.6,30.15,NE,45,0.0,4.9,60,0.00,,,0.00,WUHU21623XXSP,2013-03-17 17:30:00,
2013-03-17 13:35:00,41.4,28.6,30.15,NE,45,2.9,2.9,60,0.00,,,0.00,WUHU21623XXSP,2013-03-17 17:35:00,
2013-03-17 13:40:00,41.4,28.6,30.14,NE,51,3.6,6.9,60,0.00,,,0.00,WUHU21623XXSP,2013-03-17 17:40:00,
2013-03-17 13:45:00,41.4,28.6,30.14,NNE,22,0.0,6.9,60,0.00,,,0.00,WUHU21623XXSP,2013-03-17 17:45:00,
2013-03-17 13:50:00,41.4,28.2,30.14,NNE,22,0.0,6.0,59,0.00,,,0.00,WUHU21623XXSP,2013-03-17 17:50:00,
2013-03-17 13:55:00,41.4,28.2,30.14,NNW,337,2.6,6.0,59,0.00,,,0.00,WUHU21623XXSP,2013-03-17 17:55:00,
2013-03-17 14:00:00,41.2,28.0,30.14,ENE,77,3.9,5.1,59,0.00,,,0.00,WUHU21623XXSP,2013-03-17 18:00:00,
2013-03-17 14:05:00,41.2,28.0,30.15,ESE,112,0.0,5.1,59,0.00,,,0.00,WUHU21623XXSP,2013-03-17 18:05:00,
2013-03-17 14:10:00,41.2,28.0,30.14,ENE,67,3.9,7.4,59,0.00,,,0.00,WUHU21623XXSP,2013-03-17 18:10:00,
2013-03-17 14:15:00,41.2,28.0,30.14,ENE,64,2.1,7.4,59,0.00,,,0.00,WUHU21623XXSP,2013-03-17 18:15:00,
2013-03-17 14:20:00,41.1,27.9,30.14,SE,135,2.7,3.8,59,0.00,,,0.00,WUHU21623XXSP,2013-03-17 18:20:00,
2013-03-17 14:25:00,40.9,27.7,30.14,East,90,6.3,10.1,59,0.00,,,0.00,WUHU21623XXSP,2013-03-17 18:25:00,
2013-03-17 14:30:00,40.7,27.5,30.14,ENE,62,4.3,10.1,59,0.00,,,0.00,WUHU21623XXSP,2013-03-17 18:30:00,
2013-03-17 14:35:00,40.5,27.3,30.14,NE,50,6.5,9.6,59,0.00,,,0.00,WUHU21623XXSP,2013-03-17 18:35:00,
2013-03-17 14:40:00,40.5,27.3,30.14,NE,52,3.5,9.6,59,0.00,,,0.00,WUHU21623XXSP,2013-03-17 18:40:00,
2013-03-17 14:45:00,40.3,27.2,30.14,NE,45,6.5,7.2,59,0.00,,,0.00,WUHU21623XXSP,2013-03-17 18:45:00,
2013-03-17 14:50:00,40.3,27.6,30.14,ENE,57,5.3,8.9,60,0.00,,,0.00,WUHU21623XXSP,2013-03-17 18:50:00,
2013-03-17 14:55:00,40.3,27.6,30.14,ESE,117,3.6,8.9,60,0.00,,,0.00,WUHU21623XXSP,2013-03-17 18:55:00,
2013-03-17 15:00:00,40.3,27.6,30.14,East,97,4.0,8.9,60,0.00,,,0.00,WUHU21623XXSP,2013-03-17 19:00:00,
2013-03-17 15:05:00,40.3,27.6,30.14,NNE,31,3.2,8.9,60,0.00,,,0.00,WUHU21623XXSP,2013-03-17 19:05:00,
2013-03-17 15:10:00,40.2,27.5,30.14,NE,45,4.2,7.4,60,0.00,,,0.00,WUHU21623XXSP,2013-03-17 19:10:00,
2013-03-17 15:15:00,40.3,27.6,30.15,East,99,3.8,9.2,60,0.00,,,0.00,WUHU21623XXSP,2013-03-17 19:15:00,
2013-03-17 15:20:00,40.2,27.5,30.14,NE,50,2.7,9.2,60,0.00,,,0.00,WUHU21623XXSP,2013-03-17 19:20:00,
2013-03-17 15:25:00,40.0,27.3,30.14,ENE,67,0.0,7.2,60,0.00,,,0.00,WUHU21623XXSP,2013-03-17 19:25:00,
2013-03-17 15:30:00,40.0,27.3,30.15,ENE,61,4.5,7.6,60,0.00,,,0.00,WUHU21623XXSP,2013-03-17 19:30:00,
2013-03-17 15:35:00,40.0,27.3,30.16,East,99,2.7,7.6,60,0.00,,,0.00,WUHU21623XXSP,2013-03-17 19:35:00,
2013-03-17 15:40:00,40.0,27.3,30.16,East,90,1.6,5.1,60,0.00,,,0.00,WUHU21623XXSP,2013-03-17 19:40:00,
2013-03-17 15:45:00,40.0,27.3,30.16,ENE,72,3.0,5.6,60,0.00,,,0.00,WUHU21623XXSP,2013-03-17 19:45:00,
2013-03-17 15:50:00,40.0,27.3,30.16,ENE,60,2.4,5.6,60,0.00,,,0.00,WUHU21623XXSP,2013-03-17 19:50:00,
2013-03-17 15:55:00,40.0,27.3,30.17,NE,45,0.0,5.6,60,0.00,,,0.00,WUHU21623XXSP,2013-03-17 19:55:00,
2013-03-17 16:00:00,40.0,27.3,30.17,ENE,67,5.4,6.3,60,0.00,,,0.00,WUHU21623XXSP,2013-03-17 20:00:00,
2013-03-17 16:05:00,40.0,27.3,30.17,ENE,67,0.0,6.3,60,0.00,,,0.00,WUHU21623XXSP,2013-03-17 20:05:00,
2013-03-17 16:10:00,40.0,27.3,30.17,NE,45,1.8,4.0,60,0.00,,,0.00,WUHU21623XXSP,2013-03-17 20:10:00,
2013-03-17 16:15:00,40.0,27.3,30.16,SE,135,2.9,4.0,60,0.00,,,0.00,WUHU21623XXSP,2013-03-17 20:15:00,
2013-03-17 16:20:00,40.0,27.3,30.17,ENE,57,3.8,7.8,60,0.00,,,0.00,WUHU21623XXSP,2013-03-17 20:20:00,
2013-03-17 16:25:00,39.8,27.1,30.17,SE,135,3.0,7.8,60,0.00,,,0.00,WUHU21623XXSP,2013-03-17 20:25:00,
2013-03-17 16:30:00,39.8,27.1,30.17,ESE,107,3.1,5.8,60,0.00,,,0.00,WUHU21623XXSP,2013-03-17 20:30:00,
2013-03-17 16:35:00,39.8,27.1,30.17,ESE,112,0.0,5.8,60,0.00,,,0.00,WUHU21623XXSP,2013-03-17 20:35:00,
2013-03-17 16:40:00,39.8,27.1,30.17,ENE,67,0.0,5.8,60,0.00,,,0.00,WUHU21623XXSP,2013-03-17 20:40:00,
2013-03-17 16:45:00,39.6,26.9,30.17,NE,51,0.7,2.2,60,0.00,,,0.00,WUHU21623XXSP,2013-03-17 20:45:00,
2013-03-17 16:50:00,39.6,26.9,30.16,East,90,0.0,2.5,60,0.00,,,0.00,WUHU21623XXSP,2013-03-17 20:50:00,
2013-03-17 16:55:00,39.6,26.9,30.16,ESE,112,0.0,4.5,60,0.00,,,0.00,WUHU21623XXSP,2013-03-17 20:55:00,
2013-03-17 17:00:00,39.6,26.9,30.17,ESE,102,2.6,4.9,60,0.00,,,0.00,WUHU21623XXSP,2013-03-17 21:00:00,
2013-03-17 17:05:00,39.4,26.7,30.17,ESE,107,2.2,5.6,60,0.00,,,0.00,WUHU21623XXSP,2013-03-17 21:05:00,
2013-03-17 17:10:00,39.4,26.7,30.17,ESE,112,2.8,6.3,60,0.00,,,0.00,WUHU21623XXSP,2013-03-17 21:10:00,
2013-03-17 17:15:00,39.4,26.7,30.17,East,90,0.2,6.3,60,0.00,,,0.00,WUHU21623XXSP,2013-03-17 21:15:00,
2013-03-17 17:20:00,39.4,26.7,30.17,ENE,57,1.0,7.2,60,0.00,,,0.00,WUHU21623XXSP,2013-03-17 21:20:00,
2013-03-17 17:25:00,39.4,26.7,30.17,East,90,0.0,7.2,60,0.00,,,0.00,WUHU21623XXSP,2013-03-17 21:25:00,
2013-03-17 17:30:00,39.4,26.7,30.17,East,90,0.0,2.9,60,0.00,,,0.00,WUHU21623XXSP,2013-03-17 21:30:00,
2013-03-17 17:35:00,39.4,26.7,30.18,East,90,4.0,5.4,60,0.00,,,0.00,WUHU21623XXSP,2013-03-17 21:35:00,
2013-03-17 17:40:00,39.4,26.7,30.18,ESE,112,0.0,5.4,60,0.00,,,0.00,WUHU21623XXSP,2013-03-17 21:40:00,
2013-03-17 17:45:00,39.4,26.7,30.18,SE,135,2.2,2.2,60,0.00,,,0.00,WUHU21623XXSP,2013-03-17 21:45:00,
2013-03-17 17:50:00,39.3,26.6,30.18,SE,135,0.0,2.2,60,0.00,,,0.00,WUHU21623XXSP,2013-03-17 21:50:00,
2013-03-17 17:55:00,39.1,26.4,30.18,East,90,3.1,3.1,60,0.00,,,0.00,WUHU21623XXSP,2013-03-17 21:55:00,
2013-03-17 18:00:00,39.1,26.4,30.18,ENE,67,0.0,3.1,60,0.00,,,0.00,WUHU21623XXSP,2013-03-17 22:00:00,
2013-03-17 18:05:00,39.1,26.4,30.18,NE,45,0.0,3.4,60,0.00,,,0.00,WUHU21623XXSP,2013-03-17 22:05:00,
2013-03-17 18:10:00,39.1,26.4,30.18,SE,135,0.0,3.4,60,0.00,,,0.00,WUHU21623XXSP,2013-03-17 22:10:00,
2013-03-17 18:15:00,38.9,26.3,30.19,ESE,105,1.8,2.5,60,0.00,,,0.00,WUHU21623XXSP,2013-03-17 22:15:00,
2013-03-17 18:20:00,38.9,26.3,30.18,ESE,112,0.0,2.5,60,0.00,,,0.00,WUHU21623XXSP,2013-03-17 22:20:00,
2013-03-17 18:25:00,38.7,26.1,30.18,ESE,112,3.1,3.1,60,0.00,,,0.00,WUHU21623XXSP,2013-03-17 22:25:00,
2013-03-17 18:30:00,38.7,26.1,30.19,ESE,112,0.0,3.1,60,0.00,,,0.00,WUHU21623XXSP,2013-03-17 22:30:00,
2013-03-17 18:35:00,38.7,26.1,30.19,East,90,0.0,0.0,60,0.00,,,0.00,WUHU21623XXSP,2013-03-17 22:35:00,
2013-03-17 18:40:00,38.7,26.1,30.19,East,90,0.0,2.2,60,0.00,,,0.00,WUHU21623XXSP,2013-03-17 22:40:00,
2013-03-17 18:45:00,38.5,25.9,30.19,ESE,112,0.0,4.0,60,0.00,,,0.00,WUHU21623XXSP,2013-03-17 22:45:00,
2013-03-17 18:50:00,38.5,25.9,30.19,East,99,3.3,5.4,60,0.00,,,0.00,WUHU21623XXSP,2013-03-17 22:50:00,
2013-03-17 18:55:00,38.4,25.8,30.20,ESE,112,0.0,5.4,60,0.00,,,0.00,WUHU21623XXSP,2013-03-17 22:55:00,
2013-03-17 19:00:00,38.2,25.6,30.20,ESE,112,0.0,3.8,60,0.00,,,0.00,WUHU21623XXSP,2013-03-17 23:00:00,
2013-03-17 19:05:00,38.2,26.0,30.20,East,90,0.9,0.9,61,0.00,,,0.00,WUHU21623XXSP,2013-03-17 23:05:00,
2013-03-17 19:10:00,38.0,25.4,30.20,East,96,1.3,2.5,60,0.00,,,0.00,WUHU21623XXSP,2013-03-17 23:10:00,
2013-03-17 19:15:00,38.0,25.4,30.21,East,90,0.0,2.5,60,0.00,,,0.00,WUHU21623XXSP,2013-03-17 23:15:00,
2013-03-17 19:20:00,38.0,25.4,30.21,East,90,0.0,0.0,60,0.00,,,0.00,WUHU21623XXSP,2013-03-17 23:20:00,
2013-03-17 19:25:00,38.0,25.4,30.21,ESE,112,0.0,0.0,60,0.00,,,0.00,WUHU21623XXSP,2013-03-17 23:25:00,
2013-03-17 19:30:00,37.8,25.2,30.21,ESE,112,1.6,2.0,60,0.00,,,0.00,WUHU21623XXSP,2013-03-17 23:30:00,
2013-03-17 19:35:00,37.8,25.2,30.21,ESE,112,0.0,2.0,60,0.00,,,0.00,WUHU21623XXSP,2013-03-17 23:35:00,
2013-03-17 19:40:00,37.8,25.2,30.21,ESE,112,0.0,0.0,60,0.00,,,0.00,WUHU21623XXSP,2013-03-17 23:40:00,
2013-03-17 19:45:00,37.8,25.2,30.21,ESE,112,0.0,0.0,60,0.00,,,0.00,WUHU21623XXSP,2013-03-17 23:45:00,
2013-03-17 19:50:00,37.8,25.2,30.21,ESE,112,0.0,0.0,60,0.00,,,0.00,WUHU21623XXSP,2013-03-17 23:50:00,
2013-03-17 19:55:00,37.8,25.2,30.21,ESE,112,0.0,0.0,60,0.00,,,0.00,WUHU21623XXSP,2013-03-17 23:55:00,
2013-03-17 20:00:00,37.8,25.2,30.21,ESE,112,0.0,0.0,60,0.00,,,0.00,WUHU21623XXSP,2013-03-18 00:00:00,
2013-03-17 20:05:00,37.8,25.2,30.22,ESE,112,0.0,0.0,60,0.00,,,0.00,WUHU21623XXSP,2013-03-18 00:05:00,
2013-03-17 20:10:00,37.8,25.2,30.22,ESE,112,0.0,0.0,60,0.00,,,0.00,WUHU21623XXSP,2013-03-18 00:10:00,
2013-03-17 20:15:00,37.8,25.2,30.23,ESE,112,0.0,0.0,60,0.00,,,0.00,WUHU21623XXSP,2013-03-18 00:15:00,
2013-03-17 20:20:00,37.8,25.6,30.23,ESE,112,0.0,0.0,61,0.00,,,0.00,WUHU21623XXSP,2013-03-18 00:20:00,
2013-03-17 20:25:00,37.8,25.6,30.23,ESE,112,0.0,0.0,61,0.00,,,0.00,WUHU21623XXSP,2013-03-18 00:25:00,
2013-03-17 20:30:00,37.8,25.6,30.23,ESE,112,0.0,0.0,61,0.00,,,0.00,WUHU21623XXSP,2013-03-18 00:30:00,
2013-03-17 20:35:00,37.8,25.6,30.23,ESE,112,0.0,0.0,61,0.00,,,0.00,WUHU21623XXSP,2013-03-18 00:35:00,
2013-03-17 20:40:00,37.8,25.6,30.23,ESE,112,0.0,0.0,61,0.00,,,0.00,WUHU21623XXSP,2013-03-18 00:40:00,
2013-03-17 20:45:00,37.8,25.6,30.23,ESE,112,0.0,0.0,61,0.00,,,0.00,WUHU21623XXSP,2013-03-18 00:45:00,
2013-03-17 20:50:00,37.8,25.6,30.23,ESE,112,0.0,0.0,61,0.00,,,0.00,WUHU21623XXSP,2013-03-18 00:50:00,
2013-03-17 20:55:00,37.8,25.6,30.24,ESE,112,0.0,0.0,61,0.00,,,0.00,WUHU21623XXSP,2013-03-18 00:55:00,
2013-03-17 21:00:00,37.8,25.6,30.24,ESE,112,0.0,0.0,61,0.00,,,0.00,WUHU21623XXSP,2013-03-18 01:00:00,
2013-03-17 21:05:00,37.8,25.6,30.24,ESE,112,0.0,0.0,61,0.00,,,0.00,WUHU21623XXSP,2013-03-18 01:05:00,
2013-03-17 21:10:00,37.8,25.6,30.24,ESE,112,0.0,0.0,61,0.00,,,0.00,WUHU21623XXSP,2013-03-18 01:10:00,
2013-03-17 21:15:00,37.8,25.6,30.24,ESE,112,0.0,0.0,61,0.00,,,0.00,WUHU21623XXSP,2013-03-18 01:15:00,
2013-03-17 21:20:00,38.0,25.8,30.24,ESE,112,0.0,0.0,61,0.00,,,0.00,WUHU21623XXSP,2013-03-18 01:20:00,
2013-03-17 21:25:00,38.0,25.8,30.25,ESE,112,0.0,0.0,61,0.00,,,0.00,WUHU21623XXSP,2013-03-18 01:25:00,
2013-03-17 21:30:00,37.8,25.6,30.25,ESE,112,0.0,0.0,61,0.00,,,0.00,WUHU21623XXSP,2013-03-18 01:30:00,
2013-03-17 21:35:00,37.8,25.6,30.25,ESE,112,0.0,0.0,61,0.00,,,0.00,WUHU21623XXSP,2013-03-18 01:35:00,
2013-03-17 21:40:00,37.8,25.6,30.25,ESE,112,0.0,0.0,61,0.00,,,0.00,WUHU21623XXSP,2013-03-18 01:40:00,
2013-03-17 21:45:00,37.8,25.6,30.24,ESE,112,0.0,0.0,61,0.00,,,0.00,WUHU21623XXSP,2013-03-18 01:45:00,
2013-03-17 21:50:00,37.8,25.6,30.24,ESE,112,0.0,0.0,61,0.00,,,0.00,WUHU21623XXSP,2013-03-18 01:50:00,
2013-03-17 21:55:00,37.8,26.0,30.24,ESE,112,0.0,0.0,62,0.00,,,0.00,WUHU21623XXSP,2013-03-18 01:55:00,
2013-03-17 22:00:00,37.8,26.0,30.24,ESE,112,0.0,0.0,62,0.00,,,0.00,WUHU21623XXSP,2013-03-18 02:00:00,
2013-03-17 22:05:00,37.8,26.0,30.24,ESE,112,0.0,0.0,62,0.00,,,0.00,WUHU21623XXSP,2013-03-18 02:05:00,
2013-03-17 22:10:00,37.8,26.0,30.24,East,90,0.0,0.0,62,0.00,,,0.00,WUHU21623XXSP,2013-03-18 02:10:00,
2013-03-17 22:15:00,37.8,26.0,30.24,NNE,22,6.7,6.7,62,0.00,,,0.00,WUHU21623XXSP,2013-03-18 02:15:00,
2013-03-17 22:20:00,37.8,26.0,30.25,NE,45,0.0,6.7,62,0.00,,,0.00,WUHU21623XXSP,2013-03-18 02:20:00,
2013-03-17 22:25:00,37.8,26.0,30.25,NE,51,4.9,6.7,62,0.00,,,0.00,WUHU21623XXSP,2013-03-18 02:25:00,
2013-03-17 22:30:00,37.8,26.0,30.25,NE,47,4.4,7.4,62,0.00,,,0.00,WUHU21623XXSP,2013-03-18 02:30:00,
2013-03-17 22:35:00,37.8,26.0,30.26,ENE,67,3.6,7.4,62,0.00,,,0.00,WUHU21623XXSP,2013-03-18 02:35:00,
2013-03-17 22:40:00,37.8,25.6,30.25,SE,135,1.8,7.2,61,0.00,,,0.00,WUHU21623XXSP,2013-03-18 02:40:00,
2013-03-17 22:45:00,37.8,25.6,30.26,ESE,107,0.6,2.2,61,0.00,,,0.00,WUHU21623XXSP,2013-03-18 02:45:00,
2013-03-17 22:50:00,37.8,25.6,30.26,ENE,67,4.9,4.9,61,0.00,,,0.00,WUHU21623XXSP,2013-03-18 02:50:00,
2013-03-17 22:55:00,37.8,25.6,30.26,East,98,2.8,4.9,61,0.00,,,0.00,WUHU21623XXSP,2013-03-18 02:55:00,
2013-03-17 23:00:00,37.8,25.6,30.27,East,79,5.5,8.9,61,0.00,,,0.00,WUHU21623XXSP,2013-03-18 03:00:00,
2013-03-17 23:05:00,37.8,25.6,30.26,East,80,3.3,8.9,61,0.00,,,0.00,WUHU21623XXSP,2013-03-18 03:05:00,
2013-03-17 23:10:00,37.8,25.6,30.27,ENE,57,4.2,8.3,61,0.00,,,0.00,WUHU21623XXSP,2013-03-18 03:10:00,
2013-03-17 23:15:00,37.8,25.2,30.27,ENE,70,4.3,8.3,60,0.00,,,0.00,WUHU21623XXSP,2013-03-18 03:15:00,
2013-03-17 23:20:00,37.8,25.2,30.26,ENE,67,3.8,7.6,60,0.00,,,0.00,WUHU21623XXSP,2013-03-18 03:20:00,
2013-03-17 23:25:00,37.8,25.2,30.27,ENE,67,2.9,7.6,60,0.00,,,0.00,WUHU21623XXSP,2013-03-18 03:25:00,
2013-03-17 23:30:00,37.8,25.2,30.27,NE,45,8.9,8.9,60,0.00,,,0.00,WUHU21623XXSP,2013-03-18 03:30:00,
2013-03-17 23:35:00,37.8,25.2,30.26,NNE,22,4.5,8.9,60,0.00,,,0.00,WUHU21623XXSP,2013-03-18 03:35:00,
2013-03-17 23:40:00,37.8,25.2,30.26,ENE,67,1.3,6.5,60,0.00,,,0.00,WUHU21623XXSP,2013-03-18 03:40:00,
2013-03-17 23:45:00,37.8,25.2,30.26,NE,45,0.0,4.7,60,0.00,,,0.00,WUHU21623XXSP,2013-03-18 03:45:00,
2013-03-17 23:50:00,37.8,25.2,30.26,NE,45,6.5,10.1,60,0.00,,,0.00,WUHU21623XXSP,2013-03-18 03:50:00,
2013-03-17 23:55:00,37.8,25.2,30.26,NE,48,6.0,10.1,60,0.00,,,0.00,WUHU21623XXSP,2013-03-18 03:55:00,